Location: Caltech
(34.1382°N, 118.1253°W)
Time: 06:25:03
(UTC-07:00)

Oscar 10/S400 - Visible Passes

Search period start: 27 July 2016 00:00
Search period end: 06 August 2016 00:00
Orbit: 4045 x 35403 km, 26.8° (Epoch: 26 July)

Date Brightness Start Highest point End Pass type
(mag) Time Alt. Az. Time Alt. Az. Time Alt. Az.
27 Jul ? 06:28:27 10° E 11:21:32 39° E 13:23:22 10° E visible
28 Jul ? 06:50:08 10° E 10:39:01 30° E 12:29:23 10° ENE visible
30 Jul ? 23:22:21 10° W 23:44:12 15° SW 23:54:00 12° SSW visible
31 Jul ? 14:14:40 10° WSW 15:33:26 14° W 23:13:12 15° SSW visible
01 Aug ? 12:54:20 10° WSW 22:14:01 31° SW 22:32:26 15° S visible
02 Aug ? 11:52:44 10° WSW 21:28:52 40° SW 21:51:40 13° SSE visible
03 Aug ? 10:58:07 10° SW 20:43:11 48° SW 21:10:18 10° SSE visible
04 Aug ? 10:07:15 10° SW 19:56:37 56° SW 20:27:10 10° SE visible
